WGS F1 (USA 195)

Last updated on Sept. 26, 2020, 5:40 a.m. UTC

1 32258U 07046A   20269.83696666  .00000018  00000-0  00000-0 0  9995
2 32258   0.0141 158.3866 0000618   6.4178 147.5858  1.00273267 31411
UTC
Height (km)
Latitude
Longitude
Inclination
Orbital Period
UTC large
Height (km)
Speed (km/s)
/
Latitude / Longitude
Inclination (degrees)
Orbital Period (minutes)
Azimuth
Elevation
Range (km)
Doppler Factor
iOS Compass Heading
iOS Angle

Next 30 passes for location: Hong Kong

Rise time Rise Azimuth (degrees) Set time Set Azimuth (degrees) Duration Max altitude (degrees)

No matching passes for this satellites